Location: Rumah Apan
(2.7833°N, 113.9500°E)
Time: 23:40:38
(UTC+00:00)

Spot 2 - Pass Details

Date: 25 July 2021
Orbit: 569 x 774 km, 98.7° (Epoch: 22 September)

Event Time Altitude Azimuth Distance (km) Brightness Sun altitude
Rises 10:52:11 0° 163° (SSE) 2,903 7.1 -4.1°
Reaches altitude 10° 10:54:20 10° 160° (SSE) 2,025 6.3 -4.6°
Maximum altitude 10:58:43 68° 77° (ENE) 717 4.2 -5.6°
Drops below altitude 10° 11:03:22 10° 355° (N) 2,147 7.2 -6.7°
Sets 11:05:41 0° 352° (N) 3,094 8.1 -7.3°
